TimeEST,TemperatureF,Dew PointF,Humidity,Sea Level PressureIn,VisibilityMPH,Wind Direction,Wind SpeedMPH,Gust SpeedMPH,PrecipitationIn,Events,Conditions,WindDirDegrees,DateUTC
12:15 AM,39.2,37.4,93,30.06,10.0,Calm,Calm,-,N/A,,Clear,0,2013-02-15 05:15:00
12:35 AM,39.2,37.4,93,30.06,10.0,Calm,Calm,-,N/A,,Clear,0,2013-02-15 05:35:00
12:55 AM,39.2,35.6,87,30.06,10.0,Calm,Calm,-,N/A,,Clear,0,2013-02-15 05:55:00
1:15 AM,39.2,37.4,93,30.08,10.0,West,3.5,-,N/A,,Clear,260,2013-02-15 06:15:00
1:35 AM,37.4,35.6,93,30.07,8.0,Calm,Calm,-,N/A,,Clear,0,2013-02-15 06:35:00
1:55 AM,37.4,33.8,87,30.08,10.0,Calm,Calm,-,N/A,,Clear,0,2013-02-15 06:55:00
2:15 AM,37.4,35.6,93,30.08,8.0,Calm,Calm,-,N/A,,Clear,0,2013-02-15 07:15:00
2:35 AM,37.4,35.6,93,30.07,5.0,Calm,Calm,-,N/A,,Clear,0,2013-02-15 07:35:00
2:55 AM,35.6,33.8,93,30.08,3.0,Calm,Calm,-,N/A,,Clear,0,2013-02-15 07:55:00
3:15 AM,37.4,35.6,93,30.07,10.0,Calm,Calm,-,N/A,,Clear,0,2013-02-15 08:15:00
3:35 AM,37.4,35.6,93,30.07,4.0,Calm,Calm,-,N/A,,Clear,0,2013-02-15 08:35:00
3:55 AM,35.6,33.8,93,30.06,8.0,Calm,Calm,-,N/A,,Clear,0,2013-02-15 08:55:00
4:15 AM,35.6,33.8,93,30.05,9.0,Calm,Calm,-,N/A,,Clear,0,2013-02-15 09:15:00
4:35 AM,37.4,35.6,93,30.05,10.0,Calm,Calm,-,N/A,,Clear,0,2013-02-15 09:35:00
4:55 AM,37.4,35.6,93,30.05,10.0,Calm,Calm,-,N/A,,Clear,0,2013-02-15 09:55:00
5:15 AM,35.6,32.0,87,30.06,8.0,Calm,Calm,-,N/A,,Clear,0,2013-02-15 10:15:00
5:35 AM,35.6,33.8,93,30.07,5.0,Calm,Calm,-,N/A,,Clear,0,2013-02-15 10:35:00
6:45 AM,32.0,30.2,93,30.08,8.0,Calm,Calm,-,N/A,,Clear,0,2013-02-15 11:45:00
7:45 AM,35.6,33.8,93,30.09,10.0,Calm,Calm,-,N/A,,Clear,0,2013-02-15 12:45:00
8:50 AM,44.6,41.0,87,30.11,10.0,Variable,6.9,-,N/A,,Clear,0,2013-02-15 13:50:00
9:48 AM,51.8,39.2,62,30.11,10.0,North,9.2,-,N/A,,Clear,360,2013-02-15 14:48:00
10:45 AM,55.4,39.2,54,30.10,10.0,North,8.1,-,N/A,,Clear,350,2013-02-15 15:45:00
11:45 AM,57.2,37.4,48,30.08,10.0,ESE,9.2,-,N/A,,Clear,120,2013-02-15 16:45:00
12:45 PM,55.4,41.0,58,30.07,10.0,SSE,12.7,-,N/A,,Clear,160,2013-02-15 17:45:00
1:45 PM,55.4,37.4,51,30.05,10.0,SSE,12.7,-,N/A,,Clear,150,2013-02-15 18:45:00
3:45 PM,55.4,35.6,47,30.00,10.0,South,13.8,-,N/A,,Clear,170,2013-02-15 20:45:00
4:45 PM,53.6,39.2,58,30.00,10.0,South,11.5,-,N/A,,Clear,170,2013-02-15 21:45:00
5:45 PM,51.8,39.2,62,29.98,10.0,South,11.5,-,N/A,,Clear,180,2013-02-15 22:45:00
6:45 PM,50.0,39.2,66,29.99,10.0,SW,6.9,-,N/A,,Clear,220,2013-02-15 23:45:00
7:45 PM,46.4,39.2,76,30.00,10.0,Calm,Calm,-,N/A,,Clear,0,2013-02-16 00:45:00
8:45 PM,44.6,41.0,87,29.99,10.0,Calm,Calm,-,N/A,,Clear,0,2013-02-16 01:45:00
9:50 PM,42.8,39.2,87,29.99,10.0,Calm,Calm,-,N/A,,Clear,0,2013-02-16 02:50:00
10:55 PM,41.0,39.2,93,29.98,10.0,Calm,Calm,-,N/A,,Clear,0,2013-02-16 03:55:00
11:15 PM,39.2,39.2,100,29.98,10.0,Calm,Calm,-,N/A,,Clear,0,2013-02-16 04:15:00
11:35 PM,41.0,39.2,93,29.97,10.0,SSW,3.5,-,N/A,,Clear,200,2013-02-16 04:35:00
11:55 PM,42.8,39.2,87,29.97,10.0,Calm,Calm,-,N/A,,Clear,0,2013-02-16 04:55:00